• In Slovakia
  • List of Countries
  • For 7 days
  • Water Temperature
  • Satellite Maps
  • Weather Map
  • Weather Widgets
  • user-avatar
    Login

    Hourly Weather Andora

    Today, 20 September, Thursday

    Time Temperature Precipitation Wind Pressure Humidity
    00:00 +12°C° 0 mm 1 mps 629 mmHg 72%
    01:00 +11°C° 0 mm 1 mps 629 mmHg 69%
    02:00 +11°C° 0 mm 1 mps 629 mmHg 65%
    03:00 +11°C° 0 mm 1 mps 628 mmHg 62%
    04:00 +11°C° 0 mm 1 mps 628 mmHg 60%
    05:00 +11°C° 0 mm 1 mps 628 mmHg 57%
    06:00 +11°C° 0 mm 1 mps 628 mmHg 55%
    07:00 +14°C° 0 mm 1 mps 630 mmHg 49%
    08:00 +18°C° 0 mm 1 mps 631 mmHg 42%
    09:00 +19°C° 0 mm 0 mps 632 mmHg 36%
    10:00 +22°C° 0 mm 1 mps 632 mmHg 35%
    11:00 +23°C° 0 mm 1 mps 632 mmHg 33%
    12:00 +24°C° 0 mm 1 mps 632 mmHg 31%
    13:00 +24°C° 0 mm 1 mps 632 mmHg 32%
    14:00 +24°C° 0 mm 2 mps 631 mmHg 33%
    15:00 +24°C° 0 mm 2 mps 631 mmHg 34%
    16:00 +21°C° 0 mm 1 mps 630 mmHg 42%
    17:00 +19°C° 0 mm 1 mps 629 mmHg 49%
    18:00 +15°C° 0 mm 1 mps 628 mmHg 57%
    19:00 +15°C° 0 mm 1 mps 628 mmHg 60%
    20:00 +14°C° 0 mm 1 mps 628 mmHg 62%
    21:00 +13°C° 0 mm 1 mps 628 mmHg 65%
    22:00 +13°C° 0 mm 1 mps 627 mmHg 66%
    23:00 +13°C° 0 mm 1 mps 627 mmHg 67%

    Tomorrow, 21 September, Friday

    Time Temperature Precipitation Wind Pressure Humidity
    00:00 +13°C° 0 mm 1 mps 627 mmHg 67%
    01:00 +13°C° 0 mm 1 mps 627 mmHg 67%
    02:00 +12°C° 0 mm 1 mps 627 mmHg 67%
    03:00 +12°C° 0 mm 1 mps 627 mmHg 67%
    04:00 +12°C° 0 mm 1 mps 627 mmHg 67%
    05:00 +12°C° 0 mm 1 mps 627 mmHg 67%
    06:00 +12°C° 0 mm 1 mps 627 mmHg 67%
    07:00 +14°C° 0 mm 1 mps 628 mmHg 60%
    08:00 +18°C° 0 mm 1 mps 630 mmHg 54%
    09:00 +20°C° 0 mm 1 mps 631 mmHg 47%
    10:00 +21°C° 0 mm 1 mps 631 mmHg 45%
    11:00 +21°C° 0 mm 2 mps 631 mmHg 43%
    12:00 +21°C° 0 mm 2 mps 632 mmHg 41%
    13:00 +21°C° 0 mm 2 mps 631 mmHg 43%
    14:00 +21°C° 0 mm 2 mps 631 mmHg 46%
    15:00 +21°C° 0 mm 2 mps 631 mmHg 48%
    16:00 +19°C° 0 mm 2 mps 630 mmHg 56%
    17:00 +17°C° 0 mm 2 mps 630 mmHg 64%
    18:00 +16°C° 0 mm 2 mps 630 mmHg 72%
    19:00 +15°C° 0 mm 2 mps 630 mmHg 77%
    20:00 +14°C° 0 mm 2 mps 630 mmHg 82%
    21:00 +13°C° 0 mm 1 mps 630 mmHg 88%
    22:00 +13°C° 0 mm 1 mps 630 mmHg 89%
    23:00 +13°C° 0 mm 1 mps 630 mmHg 90%

    Day after tomorrow, 22 September, Saturday

    Time Temperature Precipitation Wind Pressure Humidity
    00:00 +12°C° 0 mm 1 mps 630 mmHg 91%
    01:00 +12°C° 0 mm 1 mps 630 mmHg 91%
    02:00 +11°C° 0 mm 1 mps 630 mmHg 91%
    03:00 +11°C° 0 mm 1 mps 630 mmHg 91%
    04:00 +11°C° 0 mm 1 mps 630 mmHg 91%
    05:00 +11°C° 0 mm 1 mps 630 mmHg 90%
    06:00 +11°C° 0 mm 1 mps 630 mmHg 90%
    07:00 +13°C° 0 mm 1 mps 631 mmHg 79%
    08:00 +15°C° 0 mm 1 mps 632 mmHg 69%
    09:00 +19°C° 0 mm 1 mps 633 mmHg 58%
    10:00 +20°C° 0 mm 1 mps 633 mmHg 52%
    11:00 +22°C° 0 mm 1 mps 634 mmHg 47%
    12:00 +23°C° 0 mm 2 mps 634 mmHg 41%
    13:00 +23°C° 0 mm 2 mps 634 mmHg 41%
    14:00 +23°C° 0 mm 2 mps 633 mmHg 42%
    15:00 +23°C° 0 mm 2 mps 633 mmHg 43%
    16:00 +20°C° 0 mm 2 mps 632 mmHg 51%
    17:00 +19°C° 0 mm 1 mps 632 mmHg 59%
    18:00 +15°C° 0 mm 1 mps 631 mmHg 66%
    19:00 +15°C° 0 mm 1 mps 631 mmHg 69%
    20:00 +14°C° 0 mm 1 mps 631 mmHg 72%
    21:00 +14°C° 0 mm 1 mps 632 mmHg 75%
    22:00 +14°C° 0 mm 1 mps 631 mmHg 76%
    23:00 +13°C° 0 mm 1 mps 631 mmHg 76%

    23 September, Sunday

    Time Temperature Precipitation Wind Pressure Humidity
    00:00 +13°C° 0 mm 1 mps 631 mmHg 77%
    01:00 +13°C° 0 mm 1 mps 631 mmHg 76%
    02:00 +13°C° 0 mm 1 mps 631 mmHg 76%
    03:00 +13°C° 0 mm 1 mps 631 mmHg 75%
    04:00 +12°C° 0 mm 1 mps 630 mmHg 75%
    05:00 +12°C° 0 mm 1 mps 630 mmHg 74%
    06:00 +12°C° 0 mm 1 mps 630 mmHg 73%
    07:00 +15°C° 0 mm 1 mps 631 mmHg 64%
    08:00 +19°C° 0 mm 1 mps 632 mmHg 56%
    09:00 +21°C° 0 mm 1 mps 634 mmHg 47%
    10:00 +22°C° 0 mm 1 mps 634 mmHg 44%
    11:00 +23°C° 0 mm 1 mps 634 mmHg 41%
    12:00 +24°C° 0 mm 2 mps 634 mmHg 38%
    13:00 +24°C° 0 mm 2 mps 634 mmHg 39%
    14:00 +24°C° 0 mm 2 mps 633 mmHg 40%
    15:00 +24°C° 0 mm 2 mps 633 mmHg 42%
    16:00 +21°C° 0 mm 2 mps 632 mmHg 48%
    17:00 +19°C° 0 mm 2 mps 632 mmHg 54%
    18:00 +17°C° 0 mm 2 mps 631 mmHg 61%
    19:00 +16°C° 0 mm 2 mps 631 mmHg 66%
    20:00 +15°C° 0 mm 2 mps 631 mmHg 71%
    21:00 +14°C° 0 mm 2 mps 631 mmHg 77%
    22:00 +13°C° 0 mm 2 mps 631 mmHg 80%
    23:00 +13°C° 0 mm 2 mps 631 mmHg 83%

    24 September, Monday

    Time Temperature Precipitation Wind Pressure Humidity
    00:00 +12°C° 0 mm 2 mps 631 mmHg 85%
    01:00 +12°C° 0 mm 2 mps 631 mmHg 85%
    02:00 +12°C° 0 mm 2 mps 630 mmHg 85%
    03:00 +12°C° 0 mm 2 mps 630 mmHg 84%
    04:00 +10°C° 0 mm 2 mps 630 mmHg 84%
    05:00 +10°C° 0 mm 2 mps 630 mmHg 84%
    06:00 +10°C° 0 mm 2 mps 630 mmHg 83%
    07:00 +12°C° 0 mm 2 mps 631 mmHg 77%
    08:00 +14°C° 0 mm 2 mps 632 mmHg 72%
    09:00 +16°C° 0 mm 2 mps 633 mmHg 66%
    10:00 +16°C° 0 mm 2 mps 633 mmHg 63%
    11:00 +17°C° 0 mm 2 mps 633 mmHg 61%
    12:00 +18°C° 0 mm 2 mps 633 mmHg 58%
    13:00 +18°C° 0 mm 3 mps 633 mmHg 59%
    14:00 +17°C° 0 mm 3 mps 632 mmHg 60%
    15:00 +17°C° 0 mm 3 mps 632 mmHg 61%
    16:00 +14°C° 0.1 mm 3 mps 632 mmHg 66%
    17:00 +12°C° 0.1 mm 3 mps 631 mmHg 71%
    18:00 +12°C° 0.1 mm 2 mps 631 mmHg 77%
    19:00 +10°C° 0.1 mm 2 mps 631 mmHg 76%
    20:00 +9°C° 0.1 mm 2 mps 631 mmHg 76%
    21:00 +8°C° 0.1 mm 2 mps 631 mmHg 75%
    22:00 +8°C° 0 mm 2 mps 631 mmHg 72%
    23:00 +7°C° 0 mm 2 mps 630 mmHg 68%

    25 September, Tuesday

    Time Temperature Precipitation Wind Pressure Humidity
    00:00 +7°C° 0 mm 2 mps 630 mmHg 65%
    01:00 +7°C° 0 mm 2 mps 630 mmHg 64%
    02:00 +8°C° 0 mm 1 mps 630 mmHg 64%
    03:00 +7°C° 0 mm 1 mps 630 mmHg 63%
    04:00 +7°C° 0 mm 1 mps 630 mmHg 62%
    05:00 +7°C° 0 mm 1 mps 630 mmHg 61%
    06:00 +7°C° 0 mm 1 mps 630 mmHg 61%
    07:00 +9°C° 0 mm 1 mps 631 mmHg 56%
    08:00 +12°C° 0 mm 1 mps 632 mmHg 52%
    09:00 +14°C° 0 mm 2 mps 634 mmHg 48%
    10:00 +15°C° 0 mm 2 mps 634 mmHg 47%
    11:00 +16°C° 0 mm 2 mps 634 mmHg 46%
    12:00 +17°C° 0 mm 3 mps 635 mmHg 45%
    13:00 +17°C° 0 mm 3 mps 634 mmHg 48%
    14:00 +17°C° 0 mm 3 mps 634 mmHg 51%
    15:00 +16°C° 0 mm 3 mps 634 mmHg 55%
    16:00 +14°C° 0 mm 3 mps 633 mmHg 61%
    17:00 +13°C° 0 mm 2 mps 633 mmHg 68%
    18:00 +12°C° 0 mm 2 mps 633 mmHg 75%
    19:00 +10°C° 0 mm 2 mps 633 mmHg 79%
    20:00 +9°C° 0 mm 2 mps 633 mmHg 82%
    21:00 +8°C° 0 mm 2 mps 633 mmHg 86%
    22:00 +8°C° 0 mm 2 mps 633 mmHg 85%
    23:00 +8°C° 0 mm 2 mps 633 mmHg 84%
    Show more